Tracking 19564 objects as of 20-Mar-2019
HD Live streaming from Space Station
objects crossing your sky now

FENGYUN 1C DEB

Track FENGYUN 1C DEB now!
10-day predictions


NORAD ID: 30341
Int'l Code: 1999-025ABC
Perigee: 815.5 km
Apogee: 916.4 km
Inclination: 99.2 °
Period: 102.1 minutes
Semi major axis: 7236 km
RCS: 0.0444 m2 (small)
Launch date: May 10, 1999
Source: People's Republic of China (PRC)
Launch site: Taiyaun Space Center, China (TSC)

Note: This is SATELLITE DEBRIS
aabbcc
Your satellite tracking list
Your tracking list is empty




NASA's NSSDC Master Catalog

Two Line Element Set (TLE):
1 30341U 99025ABC 19077.64973594 +.00000986 +00000-0 +57028-3 0  9995
2 30341 099.2181 199.6956 0069685 165.3369 322.3614 14.10160820622302
Source of the keplerian elements: AFSPC